Location: Bremen
(53.0793°N, 8.8017°E)
Time: 13:19:20
(UTC+01:00)

Vanguard 1 Rocket - Pass Details

Date: 09 December 2021
Orbit: 651 x 4224 km, 34.3° (Epoch: 21 January)

Event Time Altitude Azimuth Distance (km) Brightness Sun altitude
Rises 01:16:18 0° 207° (SSW) 3,963 - -57.7°
Reaches altitude 10° 01:19:27 10° 190° (S) 3,395 - -57.5°
Maximum altitude 01:25:35 21° 146° (SE) 3,400 - -57.1°
Exits shadow 01:31:40 15° 114° (ESE) 4,557 10.9 -56.6°
Drops below altitude 10° 01:34:42 10° 105° (ESE) 5,295 11.3 -56.3°
Sets 01:41:31 0° 93° (E) 7,027 12.2 -55.7°
